KLM565 UKDD-UKBB

Flight info

Callsign KLM565
Flight time N/A
Altitude 28000
Route PEKIT L67 VEBIX
Aircraft A320/M-SDE3FGHIRWY/LB1

Departure

Time 2026-04-27 12:48
Airport Dnipro International Airport (UKDD)

Arrival

Time N/A
Airport Boryspil International Airport (UKBB)
Time Latitude Longitude Altitude Speed Heading
2026-04-27 12:28 48.36761 35.09586 496 ft 0 kts 217°
2026-04-27 12:41 48.36765 35.09590 496 ft 0 kts 217°
2026-04-27 12:43 48.36764 35.09590 496 ft 0 kts 217°
2026-04-27 12:44 48.36759 35.09584 496 ft 3 kts 216°
2026-04-27 12:44 48.36714 35.09574 496 ft 10 kts 185°
2026-04-27 12:44 48.36635 35.09517 496 ft 15 kts 213°
2026-04-27 12:45 48.36541 35.09413 496 ft 17 kts 217°
2026-04-27 12:45 48.36430 35.09289 496 ft 22 kts 217°
2026-04-27 12:45 48.36307 35.09151 496 ft 22 kts 216°
2026-04-27 12:45 48.36183 35.09014 496 ft 22 kts 216°
2026-04-27 12:46 48.36054 35.08863 496 ft 23 kts 221°
2026-04-27 12:46 48.35960 35.08662 496 ft 24 kts 246°
2026-04-27 12:46 48.35909 35.08430 496 ft 24 kts 245°
2026-04-27 12:46 48.35794 35.08281 496 ft 21 kts 193°
2026-04-27 12:47 48.35727 35.08416 496 ft 12 kts 90°
2026-04-27 12:47 48.35727 35.08450 496 ft 7 kts 90°
2026-04-27 12:47 48.35731 35.08902 496 ft 89 kts 88°
2026-04-27 12:47 48.35747 35.10262 524 ft 165 kts 88°
2026-04-27 12:48 48.35781 35.12167 1047 ft 202 kts 86°
2026-04-27 12:48 48.35811 35.14614 1338 ft 256 kts 90°
2026-04-27 12:48 48.35666 35.17138 2658 ft 231 kts 95°
2026-04-27 12:48 48.35597 35.19604 3564 ft 242 kts 85°
2026-04-27 12:49 48.35639 35.22276 4265 ft 265 kts 84°
2026-04-27 12:49 48.35894 35.25069 5046 ft 276 kts 66°
2026-04-27 12:49 48.36924 35.27465 5925 ft 277 kts 36°
2026-04-27 12:49 48.38574 35.28830 6989 ft 271 kts 13°
2026-04-27 12:50 48.40363 35.29659 8284 ft 268 kts 10°
2026-04-27 12:50 48.42203 35.30367 9493 ft 267 kts
2026-04-27 12:50 48.44008 35.30218 10412 ft 266 kts 339°
2026-04-27 12:50 48.45621 35.28755 11089 ft 276 kts 313°
2026-04-27 12:51 48.46882 35.26588 11977 ft 283 kts 309°
2026-04-27 12:51 48.48146 35.24288 12994 ft 287 kts 308°
2026-04-27 12:51 48.49418 35.21950 14053 ft 288 kts 308°
2026-04-27 12:51 48.50681 35.19611 15092 ft 288 kts 308°
2026-04-27 12:52 48.51934 35.17278 16075 ft 289 kts 308°
2026-04-27 12:52 48.53211 35.14894 17013 ft 290 kts 308°
2026-04-27 12:52 48.54487 35.12508 17891 ft 292 kts 309°
2026-04-27 12:52 48.55705 35.10055 18716 ft 295 kts 302°
2026-04-27 12:53 48.56775 35.04110 20406 ft 302 kts 279°
2026-04-27 12:53 48.56881 35.00906 21138 ft 306 kts 278°
2026-04-27 12:53 48.56975 34.97701 21794 ft 310 kts 278°
2026-04-27 12:54 48.57066 34.94420 22454 ft 313 kts 278°
2026-04-27 12:54 48.57155 34.91077 23099 ft 316 kts 278°
2026-04-27 12:54 48.57238 34.87792 23695 ft 320 kts 278°
2026-04-27 12:54 48.57326 34.84387 24292 ft 322 kts 278°
2026-04-27 12:55 48.57586 34.81049 24786 ft 322 kts 288°
2026-04-27 12:55 48.58492 34.77957 25268 ft 324 kts 303°
2026-04-27 12:55 48.59939 34.75382 25893 ft 325 kts 310°
2026-04-27 12:55 48.61505 34.72892 26425 ft 327 kts 311°
2026-04-27 12:56 48.63087 34.70392 26910 ft 330 kts 311°
2026-04-27 12:56 48.64670 34.67901 27374 ft 332 kts 311°
2026-04-27 12:56 48.66283 34.65367 27809 ft 335 kts 311°
2026-04-27 12:56 48.67895 34.62838 27998 ft 335 kts 311°
2026-04-27 12:57 48.71171 34.57709 28065 ft 340 kts 311°
2026-04-27 12:57 48.74444 34.52584 28070 ft 339 kts 311°
2026-04-27 12:58 48.77725 34.47438 28069 ft 339 kts 311°
2026-04-27 12:58 48.80997 34.42295 28066 ft 341 kts 311°
2026-04-27 12:59 48.84283 34.37121 28063 ft 340 kts 311°
2026-04-27 12:59 48.87548 34.31969 28060 ft 341 kts 311°
2026-04-27 13:00 48.89225 34.29317 28063 ft 352 kts 311°
2026-04-27 13:00 48.90934 34.26612 28059 ft 362 kts 311°
2026-04-27 13:00 48.94478 34.21006 28055 ft 366 kts 311°
2026-04-27 13:01 48.98044 34.15746 28070 ft 370 kts 320°
2026-04-27 13:01 49.01763 34.10423 28060 ft 366 kts 308°
2026-04-27 13:02 49.04949 34.04826 28053 ft 366 kts 310°
2026-04-27 13:02 49.08392 33.99070 28066 ft 365 kts 310°
2026-04-27 13:03 49.11842 33.93427 28071 ft 364 kts 311°
2026-04-27 13:03 49.15306 33.87816 28072 ft 364 kts 311°
2026-04-27 13:04 49.18526 33.81887 28073 ft 364 kts 299°
2026-04-27 13:04 49.20784 33.74946 28070 ft 364 kts 297°
2026-04-27 13:05 49.23066 33.68013 28074 ft 362 kts 298°
2026-04-27 13:05 49.25359 33.61154 28076 ft 362 kts 298°
2026-04-27 13:06 49.27664 33.54288 28075 ft 362 kts 298°
2026-04-27 13:06 49.29961 33.47451 28079 ft 361 kts 298°
2026-04-27 13:07 49.32263 33.40589 28079 ft 361 kts 298°
2026-04-27 13:07 49.34594 33.33796 28077 ft 360 kts 300°
2026-04-27 13:08 49.37112 33.27025 28079 ft 363 kts 300°
2026-04-27 13:08 49.39566 33.20374 28082 ft 359 kts 300°
2026-04-27 13:09 49.42010 33.13712 28088 ft 358 kts 300°
2026-04-27 13:09 49.44447 33.07043 28090 ft 358 kts 300°
2026-04-27 13:10 49.46893 33.00336 28094 ft 357 kts 300°
2026-04-27 13:10 49.49246 32.93766 28041 ft 337 kts 300°
2026-04-27 13:11 49.50313 32.90641 27632 ft 324 kts 298°
2026-04-27 13:11 49.51283 32.87610 27057 ft 316 kts 297°
2026-04-27 13:11 49.52245 32.84548 26393 ft 311 kts 297°
2026-04-27 13:11 49.53182 32.81585 25713 ft 307 kts 297°
2026-04-27 13:12 49.54117 32.78655 25031 ft 303 kts 298°
2026-04-27 13:12 49.55036 32.75787 24357 ft 298 kts 298°
2026-04-27 13:12 49.55948 32.72940 23668 ft 294 kts 298°
2026-04-27 13:12 49.56849 32.70128 22989 ft 291 kts 298°
2026-04-27 13:13 49.57618 32.67701 22402 ft 288 kts 300°
2026-04-27 13:13 49.58481 32.64966 21707 ft 286 kts 301°
2026-04-27 13:13 49.59381 32.62210 21022 ft 285 kts 301°
2026-04-27 13:13 49.60255 32.59530 20355 ft 283 kts 302°
2026-04-27 13:14 49.61166 32.56796 19641 ft 283 kts 300°
2026-04-27 13:14 49.62061 32.54111 18978 ft 282 kts 300°
2026-04-27 13:14 49.62906 32.51551 18369 ft 281 kts 300°
2026-04-27 13:14 49.63816 32.48774 17717 ft 279 kts 300°
2026-04-27 13:15 49.64686 32.46093 17087 ft 278 kts 300°
2026-04-27 13:15 49.65557 32.43442 16478 ft 277 kts 300°
2026-04-27 13:15 49.66424 32.40800 15906 ft 275 kts 300°
2026-04-27 13:15 49.67001 32.39038 15598 ft 272 kts 300°
2026-04-27 13:16 49.68106 32.35569 14952 ft 268 kts 299°
2026-04-27 13:16 49.68902 32.33023 14444 ft 266 kts 299°
2026-04-27 13:16 49.69700 32.30470 13924 ft 264 kts 299°
2026-04-27 13:16 49.70238 32.28753 13568 ft 263 kts 299°
2026-04-27 13:17 49.71035 32.26219 13032 ft 261 kts 298°
2026-04-27 13:17 49.72096 32.22864 12314 ft 266 kts 298°
2026-04-27 13:17 49.72654 32.21149 12136 ft 280 kts 299°
2026-04-27 13:17 49.73638 32.18462 12033 ft 295 kts 303°
2026-04-27 13:18 49.74766 32.15745 12006 ft 304 kts 304°
2026-04-27 13:18 49.76298 32.12086 11994 ft 307 kts 303°
2026-04-27 13:18 49.77049 32.10217 11994 ft 307 kts 302°
2026-04-27 13:18 49.78144 32.07385 11992 ft 307 kts 301°
2026-04-27 13:19 49.79222 32.04485 11990 ft 307 kts 301°
2026-04-27 13:19 49.80270 32.01581 11990 ft 308 kts 300°
2026-04-27 13:19 49.81286 31.98702 11991 ft 309 kts 300°
2026-04-27 13:19 49.82302 31.95779 11992 ft 310 kts 300°
2026-04-27 13:20 49.83321 31.92812 11994 ft 311 kts 299°
2026-04-27 13:20 49.84319 31.89881 11995 ft 309 kts 299°
2026-04-27 13:20 49.85322 31.86920 11993 ft 308 kts 299°
2026-04-27 13:20 49.86315 31.83971 11992 ft 308 kts 299°
2026-04-27 13:21 49.87310 31.81019 11992 ft 309 kts 299°
2026-04-27 13:21 49.88299 31.78080 11993 ft 311 kts 299°
2026-04-27 13:21 49.89291 31.75119 11995 ft 310 kts 299°
2026-04-27 13:21 49.90284 31.72149 11995 ft 309 kts 299°
2026-04-27 13:22 49.91133 31.69090 11993 ft 310 kts 291°
2026-04-27 13:22 49.91695 31.65963 11861 ft 290 kts 288°
2026-04-27 13:22 49.92161 31.62984 11585 ft 275 kts 287°
2026-04-27 13:22 49.92594 31.60150 11170 ft 266 kts 287°
2026-04-27 13:23 49.93018 31.57404 10661 ft 262 kts 287°
2026-04-27 13:23 49.93447 31.54667 10090 ft 259 kts 287°
2026-04-27 13:23 49.93878 31.51993 9488 ft 256 kts 287°
2026-04-27 13:23 49.94316 31.49314 8855 ft 255 kts 287°
2026-04-27 13:24 49.94755 31.46658 8208 ft 252 kts 287°
2026-04-27 13:24 49.95188 31.44051 7631 ft 248 kts 287°
2026-04-27 13:24 49.95603 31.41539 7319 ft 234 kts 287°
2026-04-27 13:24 49.95995 31.39161 6932 ft 224 kts 287°
2026-04-27 13:25 49.96377 31.36833 6466 ft 219 kts 287°
2026-04-27 13:25 49.96760 31.34504 6120 ft 222 kts 287°
2026-04-27 13:25 49.97144 31.32196 6028 ft 219 kts 287°
2026-04-27 13:25 49.97603 31.29952 6000 ft 218 kts 294°
2026-04-27 13:26 49.98228 31.27855 5578 ft 211 kts 297°
2026-04-27 13:26 49.98869 31.25814 5052 ft 210 kts 297°
2026-04-27 13:26 49.99502 31.23807 4531 ft 209 kts 297°
2026-04-27 13:26 50.00145 31.21768 3996 ft 208 kts 297°
2026-04-27 13:27 50.00778 31.19769 3467 ft 206 kts 297°
2026-04-27 13:27 50.01423 31.17738 3120 ft 211 kts 297°
2026-04-27 13:27 50.02070 31.15703 3027 ft 209 kts 297°
2026-04-27 13:27 50.02718 31.13665 3027 ft 209 kts 297°
2026-04-27 13:28 50.03378 31.11591 3006 ft 210 kts 297°
2026-04-27 13:28 50.04029 31.09544 3004 ft 211 kts 297°
2026-04-27 13:28 50.04681 31.07492 3001 ft 212 kts 297°
2026-04-27 13:28 50.05341 31.05416 3001 ft 213 kts 297°
2026-04-27 13:29 50.05987 31.03382 2998 ft 211 kts 297°
2026-04-27 13:29 50.06630 31.01359 2998 ft 208 kts 297°
2026-04-27 13:29 50.07273 30.99333 2999 ft 207 kts 297°
2026-04-27 13:29 50.07903 30.97347 2999 ft 200 kts 297°
2026-04-27 13:30 50.08508 30.95438 2997 ft 197 kts 297°
2026-04-27 13:30 50.09082 30.93806 2982 ft 193 kts 306°
2026-04-27 13:30 50.10173 30.92639 3072 ft 195 kts 333°
2026-04-27 13:30 50.11456 30.91992 3082 ft 192 kts 337°
2026-04-27 13:31 50.12721 30.91398 3091 ft 188 kts 337°
2026-04-27 13:31 50.13994 30.90803 3093 ft 190 kts 337°
2026-04-27 13:31 50.15257 30.90214 3090 ft 191 kts 337°
2026-04-27 13:31 50.16511 30.89630 3088 ft 188 kts 337°